Location: Emory University Observatory
(33.7903°N, 84.3267°W)
Time: 15:50:09
(UTC-04:00)

Tiangong 1 - Pass Details

Date: 07 October 2017
Orbit: 293 x 320 km, 42.8° (Epoch: 20 October)

Event Time Altitude Azimuth Distance (km) Brightness Sun altitude
Rises 20:19:27 0° 282° (WNW) 2,034 6.5 -14.6°
Reaches altitude 10° 20:21:55 10° 306° (NW) 1,199 4.5 -15.1°
Maximum altitude 20:23:42 16° 347° (NNW) 922 3.2 -15.5°
Enters shadow 20:24:46 13° 15° (NNE) 1,026 3.1 -15.7°
